Location: Cornospital
(48.0620°N, 3.3837°W)
Time: 16:01:31
(UTC+00:00)

Cosmos 1486 Rocket - Pass Details

Date: 17 June 2021
Orbit: 759 x 783 km, 74.1° (Epoch: 31 July)

Event Time Altitude Azimuth Distance (km) Brightness Sun altitude
Rises 23:15:38 0° 333° (NNW) 3,239 8.8 -17.3°
Reaches altitude 10° 23:18:04 10° 329° (NNW) 2,306 7.6 -17.4°
Maximum altitude 23:23:07 52° 254° (WSW) 942 4.4 -17.6°
Enters shadow 23:25:31 29° 193° (SSW) 1,372 4.8 -17.7°
